Retour au catalogue

TIANSHI 01

ActifSciencePO
NORAD 68415·PAYLOAD·🇨🇳 China

Lancé Mar 30, 2026 depuis Jiuquan Satellite Launch Center

Loading…

Prochains Passages (prochaines 24 heures)

TLE

FraisSource: Space-Track

Époque: Sep 14, 2026, 05:01 UTC

1 68415U 26066D   26257.20921161  .00001909  00000-0  19916-3 0  9996
2 68415  84.9704 171.0771 0023806 306.6545  53.2490 14.88953163 24973

Suivez TIANSHI 01 en temps réel avec AllMySat

Download on the App Store